Find Starlink 6304

NORAD ID: 56778 Int'l Des: 2023-078 Owner: SPXS Country: US Constellation: starlink operational
LEOCIRCULAR

現在のビュー

3D地球を読み込み中...

About Starlink 6304

Starlink 6304 (NORAD 56778) is a starlink constellation satellite (v1.5) launched May 31, 2023 by SPXS of US. It operates in LEO, CIRCULAR orbit with a mass of 305.00 kg.

Starlink 6304について

説明を読み込み中...

次回通過

Passes for default location (London). Set your location on the main map for personalized predictions.

高度履歴

Loading altitude history...

軌道要素

1 56778U 23078M 26170.79239874 .00000195 00000-0 24127-4 0 9993
2 56778 70.0001 67.1776 0002892 270.5281 89.5546 14.98332105168461
Epoch: Jun 19, 2026 • Age: 15 hours

現在のステータス

高度 574.2 km
速度 7.57 km/s
衛星直下点 12.38°N, 179.69°E
打ち上げ日 May 31, 2023
運用期間 3 years
タイプ internet

技術仕様

分類 Payload
質量 305.00 kg
乾燥質量 290.00 kg
総質量 305.00 kg
長さ 0.20 m
直径 2.80 m
スパン 9.00 m
形状 Box + pan
製造者 SPXS
バスタイプ Starlink
フェーズステータス In Orbit
所有者/国 SPXS/US

Most Searched